Location: Franzen
(48.6167°N, 15.3833°E)
Time: 18:42:50
(UTC+00:00)

Altair - Pass Details

Date: 05 August 2021
Orbit: 1501 x 1682 km, 47.2° (Epoch: 19 September)

Event Time Altitude Azimuth Distance (km) Brightness Sun altitude
Rises 00:15:58 0° 237° (WSW) 4,769 - -22.5°
Reaches altitude 10° 00:19:07 10° 234° (SW) 3,762 - -22.4°
Exits shadow 00:23:18 30° 226° (SW) 2,512 8.1 -22.1°
Maximum altitude 00:28:25 64° 156° (SSE) 1,672 7.4 -21.8°
Drops below altitude 10° 00:37:28 10° 78° (ENE) 3,665 9.9 -21.2°
Sets 00:40:30 0° 76° (ENE) 4,641 10.6 -21.0°
